Hourly Weather Roundup
Issued by NWS Central Illinois

Home | Current Version | Previous Version | Text Only | Print | Product List | Glossary On
Versions: 1 2 3 4 5 6 7 8 9 10 11 12 13 14 15 16 17 18 19 20 21 22 23 24 25 26 27 28 29 30 31 32 33 34 35 36 37 38 39 40 41 42 43 44 45 46 47 48 49 50
000
NZUS43 KILX 010210
HWRILX

AREA WEATHER ROUNDUP
NATIONAL WEATHER SERVICE, LINCOLN IL
900 PM CDT TUE SEP 30 2014


CITY           SKY/WX    TMP DP  RH WIND       PRES   REMARKS
BLOOMINGTON    CLEAR     56  49  77 E10         N/A
CHAMPAIGN      CLEAR     57  48  72 NE13G20   29.98
DECATUR        CLEAR     60  52  74 NE10      29.96R
FLORA          PTCLDY    67  59  76 NE6       29.93R
GALESBURG      CLEAR     59  50  73 E9        29.95S
JACKSONVILLE   CLEAR     66  58  75 NE10      29.93R
LACON          CLEAR     54  47  77 E10       29.98S
LAWRENCEVILLE  PTCLDY    65  60  84 NE9       29.94R
LITCHFIELD     CLEAR     67  56  69 E8        29.92R
$$


CITY           SKY/WX    TMP DP  RH WIND       PRES   REMARKS
LINCOLN        CLEAR     62  52  70 NE8       29.94R
MACOMB         CLEAR     59  55  84 E6        29.95S
MATTOON        CLEAR     60  53  77 E5        29.95R
MT CARMEL AP   CLEAR     68  61  77 NE5       29.93R
OLNEY-NOBLE AP CLEAR     64  59  82 CALM      29.93S HAZE
PARIS          CLEAR     59  52  78 NE5       29.98R
PEORIA         CLEAR     61  48  62 E14       29.96S
PONTIAC        CLEAR     54  48  82 E3        30.01R
RANTOUL        CLEAR     57  48  72 NE9       30.00R
ROBINSON       PTCLDY    63  59  88 NE5       29.95R
SPRINGFIELD    CLEAR     62  56  80 NE7       29.94R
TAYLORVILLE    CLEAR     64  54  68 E9        29.93R
$$

...REGIONAL REPORTS...


CITY           SKY/WX    TMP DP  RH WIND       PRES   REMARKS
CHICAGO O`HARE CLOUDY    54  49  83 N5        30.02R
KANKAKEE       CLOUDY    54  47  79 NE5       30.02S
MOLINE         NOT AVBL
MOUNT VERNON   NOT AVBL
PITTSFIELD     CLEAR     65  58  79 NE5       29.91S
QUINCY         CLEAR     65  58  78 E9        29.90R
ROCKFORD       MOCLDY    49  43  80 E6        30.05R
$$


CITY           SKY/WX    TMP DP  RH WIND       PRES   REMARKS
BURLINGTON     PTCLDY    63  55  75 E9        29.93R
CEDAR RAPIDS   CLEAR     55  50  82 E14       29.93R
DES MOINES     CLOUDY    67  58  72 SE13      29.85R
KIRKSVILLE     PTCLDY    66  32  28 E10       29.88S
OTTUMWA        PTCLDY    62  55  77 E12       29.89R
ST LOUIS       NOT AVBL
$$


CITY           SKY/WX    TMP DP  RH WIND       PRES   REMARKS
TERRE HAUTE    CLEAR     59  53  80 NE5       29.96R
EVANSVILLE     CLEAR     71  60  68 N5        29.92R
INDIANAPOLIS   PTCLDY    59  48  67 NE9       29.96R
LAFAYETTE      CLEAR     52  46  80 NE8       30.00R
MADISON        PTCLDY    43  41  93 CALM      30.04R
MILWAUKEE      DRIZZLE   51  49  92 N5        30.05R FOG
$$




USA.gov is the U.S. government's official web portal to all federal, state and local government web resources and services.